Simultaneous Nadir Overpasses (SNOs) Predictions

Prediction of SNOs between AURA and NPP Satellite Orbit:

Table of predicted SNOs for the next 14.0 days since TLE Epoch: 4/3/2021
Index Date (AURA) Time (AURA) Lat,Lon (AURA) SZA (AURA ) Date (NPP) Time (NPP) Lat,Lon (NPP) SZA (NPP ) Distance(km) Time Diff (sec)
1 04/04/2021 11:25:08 -79.33, 84.29 92.99 04/04/2021 11:24:07 -79.32, 84.25 92.94 1.18 61
2 04/04/2021 12:14:28 79.55,-106.54 86.67 04/04/2021 12:14:45 79.54,-106.68 86.69 3.07 17
3 04/07/2021 03:41:34 -79.43,-159.14 94.17 04/07/2021 03:40:58 -79.43,-159.15 94.14 0.41 36
4 04/07/2021 04:30:55 79.61, 9.77 85.55 04/07/2021 04:31:37 79.61, 9.67 85.54 2.09 42
5 04/09/2021 19:58:00 -79.53, -42.59 95.33 04/09/2021 19:57:49 -79.53, -42.54 95.33 1.12 11
6 04/09/2021 20:47:21 79.70, 126.32 84.40 04/09/2021 20:48:28 79.70, 126.29 84.36 0.63 67
7 04/12/2021 11:25:05 79.38, -95.38 83.91 04/12/2021 11:24:02 79.38, -95.28 83.94 2.19 63
8 04/12/2021 12:14:26 -79.62, 73.93 96.46 04/12/2021 12:14:40 -79.63, 74.07 96.50 3.02 14
9 04/15/2021 03:41:32 79.38, 20.55 82.92 04/15/2021 03:40:55 79.38, 20.47 82.97 1.87 37



Historial Predications of SNOs between AURA and NPP
